NOAA 16 DEB, 41663

Orbit data source: Space-Track

NOAA 16 DEB, 41663 is space debris in SSO originally from a launch on Thu, 21 Sep 2000 UTC launched from the Air Force Western Test Range (AFWTR). Debris objects in space refer to the collection of defunct objects orbiting the Earth. Examples of debris include non-operational satellites, rocket bodies, and fragments generated from explosions, collisions, or faulty payload assembly.

Loading next visibility...
Identifier
41663, 2000-055PC
Orbit
SSO
Country
Flag of USUS
Related business
Manufacturer
Unknown
Mission
Spacecraft
Bus & Motor
Unknown
Mass
Unknown
Launch date (UTC)
2000-09-21 (25 years ago)
Launch vehicle
Unknown
Launch site
Air Force Western Test Range (AFWTR)
Object type
Payload
Rocket body
Debris
Shape & HBR
Unknown shape, 0.1 m
Radar Cross Section
Small (<0.1 m²)

Expand to show TLE details & history
Last TLE update: 11 hours ago

TLE from 11 hours ago
0 NOAA 16 DEB
1 41663U 00055PC  26037.34145421  .00019988  00000-0  46559-2 0  9998
2 41663  98.8256 178.1287 0013983 164.1876 195.9758 14.54777710509620
Epoch: 2026-02-06T08:11Z
TLE epoch observation values (Epoch: 2026-02-06T08:11:41.643Z)
Latitude
-0.0001°
Longitude
-81.27551°
Altitude
722.576 km
Speed
7.489 km/s
True Right ascension
11h 52m 30s
True Declination
0° 00' 00"
Sunlit
Object was in full shadow at epoch
Visualization orbit readout
Latitude
Unknown
Longitude
Unknown
Altitude
Unknown
Speed
Unknown
Apparent Right ascension
Unknown
Apparent Declination
Unknown
Sunlit
N/A
Visualization observer readout
Local Sidereal Time
21:01:17
Azimuth
Unknown
Elevation
Unknown
Doppler factor
Unknown
Orbital elements
Apogee altitude
717.112 km
Perigee altitude
697.297 km
Semi-major axis
7,085.342 km
Eccentricity
0.0014
Inclination
98.8256°
RAAN
178.1287°
Arg. of periapsis
164.1876°
True anomaly
195.93177°
Mean anomaly
195.9758°
Eccentric anomaly
195.95378°
Mean motion
3.63917 °/min
Orbital period
98.92 mins
BSTAR
0.0046559
Loading maneuver chart data...
Computing Atmospheric mass density...
Loading historical data...
Loading historical data...
Loading historical data...
Loading historical data...
Loading historical data...
Loading historical data...
Loading historical data...

Documentation

Showing up to 5 results
|